Location: Hysolar-Haus
(48.7436°N, 9.0965°E)
Time: 21:06:01
(UTC+00:00)

Explorer 7 - Pass Details

Date: 20 November 2019
Orbit: 485 x 680 km, 50.3° (Epoch: 11 December)

Event Time Altitude Azimuth Distance (km) Brightness Sun altitude
Exits shadow 05:54:16 - 266° (W) 2,014 9.1 -7.5°
Reaches altitude 10° 05:55:16 10° 255° (WSW) 1,776 8.9 -7.4°
Maximum altitude 05:57:14 13° 226° (SW) 1,546 8.9 -7.1°
Drops below altitude 10° 05:59:09 10° 196° (SSW) 1,724 9.4 -6.8°
Sets 06:02:14 0° 169° (SSE) 2,573 10.8 -6.3°
